Weather History for KBCE - September, 2012

Change the Weather History Date:

Tuesday, September 11, 2012

  Actual Average (KCDC) Record (KCDC)
Temperature  
Mean Temperature 56 °F 64 °F  
Max Temperature 61 °F 81 °F 93 °F (1990)
Min Temperature 51 °F 47 °F 33 °F (2010)
Degree Days  
Heating Degree Days 9 3  
Month to date heating degree days 20  
Since 1 July heating degree days 29  
Cooling Degree Days 0 2  
Month to date cooling degree days 27  
Year to date cooling degree days 576  
Growing Degree Days 6 (Base 50)    
Moisture  
Dew Point 50 °F    
Average Humidity 87    
Maximum Humidity 100    
Minimum Humidity 60    
Precipitation  
Precipitation 0.51 in 0.02 in 0.57 in (1998)
Month to date precipitation 0.23  
Year to date precipitation 7.77  
Sea Level Pressure  
Sea Level Pressure 29.99 in    
Wind  
Wind Speed 4 mph (WSW)    
Max Wind Speed 12 mph    
Max Gust Speed -    
Visibility 8 miles    
Events Rain    
T = Trace of Precipitation, MM = Missing Value Source: NWS Daily Summary

Daily Weather History Graph

Daily Weather History Graph

Search for Another Location

Airport or City:

Trip Planner

Search our weather history database for the weather conditions in past years. The results will help you decide how hot, cold, wet, or windy it might be!

Date:

Astronomy

Sep. 11, 2012 Rise Set
Actual Time 7:07 AM MDT 7:41 PM MDT
Civil Twilight 6:41 AM MDT 8:08 PM MDT
Nautical Twilight 6:10 AM MDT 8:39 PM MDT
Astronomical Twilight 5:38 AM MDT 9:10 PM MDT
Moon 2:32 AM MDT (9/11) 4:50 PM MDT (9/11)
Length of Visible Light 13h 26m
Length of Day
12h 34m
Waning Crescent, 21% of the Moon is Illuminated
Sep 11
Waning Crescent
Sep 15
New
Sep 22
First Quarter
Sep 29
Full
Oct 8
Last Quarter

Hourly Weather History & Observations

Time (MDT) Temp. Dew Point Humidity Pressure Visibility Wind Dir Wind Speed Gust Speed Precip Events Conditions
12:53 AM 53.1 °F 51.1 °F 93% 29.92 in 10.0 mi NNW 3.5 mph - N/A   Mostly Cloudy
1:53 AM 53.1 °F 48.9 °F 86% 29.89 in 10.0 mi Calm Calm - N/A   Overcast
2:53 AM 55.0 °F 50.0 °F 83% 29.88 in 10.0 mi North 9.2 mph - N/A   Overcast
3:53 AM 54.0 °F 50.0 °F 86% 29.88 in 10.0 mi NNE 6.9 mph - N/A   Overcast
4:53 AM 53.1 °F 48.9 °F 86% 29.89 in 10.0 mi North 3.5 mph - 0.00 in Rain Light Rain
5:53 AM 52.0 °F 50.0 °F 93% 29.89 in 10.0 mi Calm Calm - 0.01 in   Overcast
6:53 AM 52.0 °F 50.0 °F 93% 29.92 in 8.0 mi Calm Calm - 0.03 in Rain Light Rain
7:53 AM 52.0 °F 51.1 °F 97% 29.95 in 10.0 mi Calm Calm - 0.00 in   Overcast
8:53 AM 53.1 °F 51.1 °F 93% 29.95 in 4.0 mi Calm Calm - 0.03 in Rain Light Rain
9:24 AM 51.8 °F 51.8 °F 100% 30.25 in 7.0 mi SE 10.4 mph - 0.03 in Rain Light Rain
9:53 AM 53.1 °F 52.0 °F 96% 29.98 in 2.5 mi SSE 8.1 mph - 0.08 in Rain Rain
10:01 AM 53.6 °F 51.8 °F 94% 30.27 in 1.2 mi SSE 8.1 mph - 0.02 in Rain Rain
10:09 AM 53.6 °F 51.8 °F 94% 30.27 in 2.0 mi South 8.1 mph - 0.05 in Rain Heavy Rain
10:29 AM 53.6 °F 51.8 °F 94% 30.27 in 4.0 mi South 9.2 mph - 0.12 in Rain Rain
10:53 AM 53.1 °F 50.0 °F 89% 30.00 in 9.0 mi SSW 6.9 mph - 0.15 in Rain Light Rain
11:53 AM 51.1 °F 48.9 °F 92% 30.03 in 4.0 mi WSW 6.9 mph - 0.09 in Rain Rain
12:53 PM 51.1 °F 48.0 °F 89% 30.03 in 6.0 mi WSW 8.1 mph - 0.10 in Rain Rain
1:53 PM 52.0 °F 48.0 °F 86% 29.99 in 10.0 mi SW 4.6 mph - 0.02 in Rain Light Rain
2:53 PM 53.1 °F 48.0 °F 83% 29.96 in 10.0 mi Calm Calm - 0.00 in   Overcast
3:53 PM 57.9 °F 48.0 °F 70% 29.92 in 10.0 mi North 5.8 mph - N/A   Scattered Clouds
5:53 PM 61.0 °F 46.9 °F 60% 29.91 in 10.0 mi WNW 11.5 mph - N/A   Clear
6:53 PM 59.0 °F 48.0 °F 67% 29.92 in 10.0 mi NW 8.1 mph - N/A   Clear
7:53 PM 55.0 °F 51.1 °F 86% 29.94 in 10.0 mi ESE 4.6 mph - N/A   Scattered Clouds
8:53 PM 55.9 °F 48.9 °F 77% 29.95 in 10.0 mi Calm Calm - N/A   Overcast
9:53 PM 54.0 °F 51.1 °F 90% 29.98 in 10.0 mi Calm Calm - N/A   Overcast
10:53 PM 53.1 °F 50.0 °F 89% 29.99 in 10.0 mi Calm Calm - N/A   Clear
11:53 PM 51.1 °F 48.9 °F 92% 30.01 in 10.0 mi SW 5.8 mph - N/A   Mostly Cloudy